Weather History for KCRP - August, 2014

Change the Weather History Date:

Monday, August 11, 2014

  Actual Average Record
Temperature  
Mean Temperature 86 °F 85 °F  
Max Temperature 96 °F 95 °F 102 °F (1928)
Min Temperature 76 °F 75 °F 70 °F (1976)
Degree Days  
Heating Degree Days 0 0  
Month to date heating degree days 0 0  
Since 1 June heating degree days 0 0  
Since 1 July heating degree days 0 0  
Cooling Degree Days 21 20  
Month to date cooling degree days 233 220  
Year to date cooling degree days 2266 2170  
Since 1 June cooling degree days 1460 1329  
Growing Degree Days 36 (Base 50)    
Moisture  
Dew Point 74 °F    
Average Humidity 71    
Maximum Humidity 97    
Minimum Humidity 45    
Precipitation  
Precipitation T in 0.07 in 3.51 in (1900)
Month to date precipitation 0.87 0.68  
Year to date precipitation 10.12 17.10  
Snow  
Snow 0.00 in - - ()
Month to date snowfall 0.0  
Since 1 June snowfall 0.0  
Since 1 July snowfall 0.0  
Snow Depth 0.00 in    
Sea Level Pressure  
Sea Level Pressure 30.00 in    
Wind  
Wind Speed 7 mph (SSE)    
Max Wind Speed 17 mph    
Max Gust Speed 21 mph    
Visibility 10 miles    
Events Rain , Thunderstorm    
T = Trace of Precipitation, MM = Missing Value Source: NWS Daily Summary

Daily Weather History Graph

Daily Weather History Graph

Search for Another Location

Airport or City:

Trip Planner

Search our weather history database for the weather conditions in past years. The results will help you decide how hot, cold, wet, or windy it might be!

Date:

Astronomy

Aug. 11, 2014 Rise Set
Actual Time 6:58 AM CDT 8:11 PM CDT
Civil Twilight 6:33 AM CDT 8:36 PM CDT
Nautical Twilight 6:04 AM CDT 9:05 PM CDT
Astronomical Twilight 5:33 AM CDT 9:35 PM CDT
Moon 8:54 PM CDT (8/11) 7:55 AM CDT (8/11)
Length of Visible Light 14h 02m
Length of Day
13h 13m
Full, 99% of the Moon is Illuminated
Aug 11
Full
Aug 17
Last Quarter
Aug 25
New
Sep 2
First Quarter
Sep 8
Full

Hourly Weather History & Observations

Time (CDT) Temp. Heat Index Dew Point Humidity Pressure Visibility Wind Dir Wind Speed Gust Speed Precip Events Conditions
12:51 AM 82.0 °F 90.2 °F 77.0 °F 85% 30.02 in 10.0 mi SE 6.9 mph - N/A   Mostly Cloudy
1:51 AM 81.0 °F 87.9 °F 77.0 °F 88% 30.01 in 10.0 mi SSE 6.9 mph - N/A   Mostly Cloudy
2:51 AM 80.1 °F 85.8 °F 77.0 °F 90% 30.01 in 10.0 mi South 4.6 mph - N/A   Mostly Cloudy
3:51 AM 80.6 °F 87.1 °F 77.0 °F 89% 30.00 in 10.0 mi South 5.8 mph - N/A   Mostly Cloudy
4:51 AM 78.1 °F - 75.9 °F 93% 29.99 in 10.0 mi South 4.6 mph - N/A   Mostly Cloudy
5:51 AM 78.1 °F - 75.9 °F 93% 29.99 in 10.0 mi South 4.6 mph - N/A   Overcast
6:51 AM 75.9 °F - 73.9 °F 94% 29.99 in 8.0 mi Calm Calm - N/A   Mostly Cloudy
7:51 AM 79.0 °F - 77.0 °F 94% 30.00 in 9.0 mi Calm Calm - N/A   Mostly Cloudy
8:51 AM 82.9 °F 92.8 °F 78.1 °F 85% 30.02 in 10.0 mi Calm Calm - N/A   Mostly Cloudy
9:51 AM 86.0 °F 96.9 °F 77.0 °F 74% 30.03 in 10.0 mi Calm Calm - N/A   Mostly Cloudy
10:51 AM 89.1 °F 98.0 °F 73.9 °F 61% 30.04 in 10.0 mi SE 3.5 mph - N/A   Mostly Cloudy
11:51 AM 93.0 °F 101.9 °F 73.0 °F 52% 30.04 in 10.0 mi WSW 8.1 mph - N/A   Mostly Cloudy
12:51 PM 93.9 °F 104.0 °F 73.9 °F 52% 30.03 in 10.0 mi Variable 4.6 mph - N/A   Mostly Cloudy
1:02 PM 93.0 °F 103.2 °F 73.9 °F 54% 30.03 in 10.0 mi ESE 11.5 mph - N/A Thunderstorm Thunderstorm
1:31 PM 88.0 °F 95.6 °F 73.0 °F 61% 30.03 in 10.0 mi South 15.0 mph - N/A   Mostly Cloudy
1:51 PM 90.0 °F 100.2 °F 75.0 °F 61% 30.02 in 10.0 mi SE 11.5 mph - 0.00 in Rain Light Rain
2:51 PM 95.0 °F 104.5 °F 73.0 °F 49% 29.99 in 10.0 mi SE 8.1 mph - 0.00 in   Mostly Cloudy
3:51 PM 96.1 °F 103.5 °F 71.1 °F 44% 29.97 in 10.0 mi SE 12.7 mph - N/A   Mostly Cloudy
4:51 PM 95.0 °F 102.5 °F 71.1 °F 46% 29.95 in 10.0 mi SE 13.8 mph 18.4 mph N/A   Mostly Cloudy
5:51 PM 93.9 °F 100.3 °F 70.0 °F 46% 29.93 in 10.0 mi SE 13.8 mph - N/A   Mostly Cloudy
6:51 PM 91.9 °F 97.4 °F 70.0 °F 48% 29.94 in 10.0 mi SE 13.8 mph - N/A   Mostly Cloudy
7:51 PM 88.0 °F 94.7 °F 72.0 °F 59% 29.92 in 10.0 mi SSE 13.8 mph - N/A   Scattered Clouds
8:51 PM 86.0 °F 95.1 °F 75.0 °F 70% 29.96 in 10.0 mi SE 10.4 mph - N/A   Scattered Clouds
9:51 PM 84.2 °F 92.3 °F 75.2 °F 74% 29.99 in 10.0 mi SSE 10.4 mph - N/A   Scattered Clouds
10:51 PM 84.2 °F 92.3 °F 75.2 °F 74% 30.03 in 10.0 mi SE 5.8 mph - N/A   Mostly Cloudy
11:51 PM 84.0 °F 93.7 °F 77.0 °F 79% 30.04 in 10.0 mi SE 9.2 mph - N/A   Mostly Cloudy